This is the latest recevied weather packets stored in our database for station/object WA4OPQ-3. If no packets are shown the sender has not sent any weather packets the latest 10 day(s).
| Time | Temp. | Humidity | Pressure | Rain* | Wind** | Luminosity | Snow |
|---|---|---|---|---|---|---|---|
| 1777454341 | 16.11° C | 99% | 1009.7 hPa | 0 mm | - | 0 W/m² | - |
| 1777453736 | 16.67° C | 99% | 1010 hPa | 0 mm | - | 0 W/m² | - |
| 1777453131 | 16.67° C | 99% | 1010.2 hPa | 0 mm | - | 0 W/m² | - |
| 1777452525 | 16.67° C | 99% | 1009.9 hPa | 0 mm | - | 0 W/m² | - |
| 1777451922 | 16.67° C | 99% | 1009.8 hPa | 0 mm | - | 0 W/m² | - |
| 1777451317 | 16.67° C | 99% | 1010.1 hPa | 0 mm | - | 0 W/m² | - |
| 1777450710 | 16.67° C | 99% | 1010.4 hPa | 0 mm | - | 0 W/m² | - |
| 1777450106 | 16.67° C | 99% | 1010.4 hPa | 0 mm | - | 0 W/m² | - |
| 1777449500 | 16.67° C | 99% | 1010.1 hPa | 0 mm | - | 0 W/m² | - |
| 1777448896 | 16.67° C | 99% | 1010.4 hPa | 0 mm | - | 0 W/m² | - |
| 1777448290 | 16.67° C | 99% | 1010.1 hPa | 0 mm | - | 0 W/m² | - |
| 1777447686 | 16.67° C | 99% | 1010.1 hPa | 0 mm | - | 0 W/m² | - |
| 1777447081 | 16.67° C | 99% | 1010 hPa | 0 mm | - | 0 W/m² | - |
| 1777446477 | 16.67° C | 99% | 1009.9 hPa | 0 mm | - | 0 W/m² | - |
| 1777445873 | 16.67° C | 99% | 1009.8 hPa | 0 mm | - | 0 W/m² | - |
| 1777445267 | 16.67° C | 99% | 1010.1 hPa | 0.25 mm | - | 0 W/m² | - |
| 1777444662 | 16.67° C | 99% | 1010.2 hPa | 1.78 mm | - | 0 W/m² | - |
| 1777444055 | 16.67° C | 99% | 1010 hPa | 3.81 mm | - | 0 W/m² | - |
| 1777443450 | 16.67° C | 99% | 1010.1 hPa | 5.84 mm | - | 0 W/m² | - |
| 1777442846 | 16.67° C | 99% | 1010.1 hPa | 8.13 mm | - | 0 W/m² | - |
| 1777442241 | 16.11° C | 99% | 1010.3 hPa | 10.41 mm | - | 0 W/m² | - |
| 1777441636 | 16.67° C | 99% | 1012.2 hPa | 12.7 mm | - | 0 W/m² | - |
| 1777441031 | 16.67° C | 99% | 1012.3 hPa | 13.46 mm | - | 0 W/m² | - |
| 1777440426 | 16.67° C | 99% | 1013.3 hPa | 13.97 mm | - | 0 W/m² | - |
| 1777439821 | 16.67° C | 99% | 1014 hPa | 15.75 mm | - | 0 W/m² | - |
* Rain latest hour (hover to see other rain measurements)
** Current wind speed in m/s (hover to see current wind gust speed)